Hourly Data Report for July 06, 2004

TORONTO CITY
ONTARIO

43°40'00.000" N
79°24'00.000" W
112.50 m
6158355
71508
XTO

Download Data

Hourly Data (July 2004)
Hourly Data Report for July 6, 2004
TIME
LST
Temp Definition
°C
Dew Point Definition
°C
Rel Hum Definition
%
Precip. Amount Definition
mm

Wind Dir Definition
10's deg

Wind Spd Definition
km/h
Visibility Definition
km
Stn Press Definition
kPa
Hmdx Definition


Wind Chill Definition


Weather Definition


00:00
01:00
02:00 15.3 12.9 86   LegendMM LegendMM LegendMM 100.42     LegendNANA
03:00 14.8 12.7 87   LegendMM LegendMM LegendMM 100.40     LegendNANA
04:00 14.1 12.4 89   LegendMM LegendMM LegendMM 100.39     LegendNANA
05:00 14.0 12.3 89   LegendMM LegendMM LegendMM 100.36     LegendNANA
06:00 14.7 12.7 88   LegendMM LegendMM LegendMM 100.42     LegendNANA
07:00 16.2 13.1 82   LegendMM LegendMM LegendMM 100.37     LegendNANA
08:00 17.9 12.9 73   LegendMM LegendMM LegendMM 100.34     LegendNANA
09:00 19.4 11.9 62   LegendMM LegendMM LegendMM 100.33     LegendNANA
10:00 20.0 11.8 59   LegendMM LegendMM LegendMM 100.35     LegendNANA
11:00 20.3 11.6 57   LegendMM LegendMM LegendMM 100.29     LegendNANA
12:00 20.8 12.1 57   LegendMM LegendMM LegendMM 100.32     LegendNANA
13:00 20.8 11.1 54   LegendMM LegendMM LegendMM 100.25     LegendNANA
14:00 21.2 13.2 60   LegendMM LegendMM LegendMM 100.18     LegendNANA
15:00 22.9 13.1 54   LegendMM LegendMM LegendMM 100.12 26   LegendNANA
16:00 22.3 13.3 57   LegendMM LegendMM LegendMM 100.06 25   LegendNANA
17:00 21.4 12.3 56   LegendMM LegendMM LegendMM 100.00     LegendNANA
18:00 20.9 11.4 55   LegendMM LegendMM LegendMM 99.90     LegendNANA
19:00 20.2 11.3 57   LegendMM LegendMM LegendMM 99.85     LegendNANA
20:00 19.2 10.9 59   LegendMM LegendMM LegendMM 99.82     LegendNANA
21:00 18.9 10.8 59   LegendMM LegendMM LegendMM 99.81     LegendNANA
22:00 18.3 12.3 68   LegendMM LegendMM LegendMM 99.80     LegendNANA
23:00 18.7 12.8 69   LegendMM LegendMM LegendMM 99.73     LegendNANA

Notes on Data Quality.

Legend

  • E = Estimated
  • M = Missing
  • NA = Not Available*
  • [empty] = Indicates an unobserved value
Date modified: